Regional Weather Roundup
Issued by NWS

Home | Current Version | Previous Version | Text Only | Print | Product List | Glossary Off
Versions: 1 2 3 4 5 6 7 8 9 10 11 12 13 14 15 16 17 18 19 20 21 22 23 24 25 26 27 28 29 30 31 32 33 34 35 36 37 38 39 40 41 42 43 44 45 46 47 48 49 50

766
ASUS45 KBOU 220107
RWRCO

WEATHER ROUNDUP FOR COLORADO
NATIONAL WEATHER SERVICE DENVER/BOULDER CO
700 PM MDT FRI JUL 21 2017

NOTE: "FAIR" INDICATES FEW OR NO CLOUDS BELOW 12000 FEET WITH NO
SIGNIFICANT WEATHER AND/OR OBSTRUCTIONS TO VISIBILITY.

COZ001>005-013-030-031-220200-
...NORTHWEST COLORADO...

CITY           SKY/WX    TMP DP  RH WIND       PRES   REMARKS
CRAIG          LGT RAIN  63  52  67 SE18G29   30.23F
HAYDEN         PTSUNNY   59  54  82 S9        30.32S
MEEKER         LGT RAIN  66  53  63 NE8       30.30R
RABBIT EARS PA CLOUDY    48  46  93 N5        30.59R
STEAMBOAT SPGS CLOUDY    57  55  92 N7        30.35S
WALDEN         CLOUDY    57  52  82 NW9       30.44R
$$

COZ006>008-011-220200-
...WEST CENTRAL VALLEYS...

CITY           SKY/WX    TMP DP  RH WIND       PRES   REMARKS
GRAND JUNCTION LGT RAIN  72  62  71 CALM      30.16R
MONTROSE       FAIR      73  59  61 SW8       30.18F
EAGLE          FAIR      75  47  36 SE15G26   30.25R THUNDER
RIFLE          TSTM      68  57  68 W12       30.20R
DELTA          FAIR      79  51  38 W5        30.15S
NUCLA          FAIR      77  50  38 NE3       30.20S
$$

COZ017>023-064>068-220200-
...SOUTHWEST COLORADO...

CITY           SKY/WX    TMP DP  RH WIND       PRES   REMARKS
DURANGO        TSTM      62  54  74 N13       30.24R
CORTEZ         FAIR      80  54  40 N5        30.13F
PAGOSA SPRINGS LGT RAIN  61  58  90 W8        30.32S
TELLURIDE      FAIR      64  49  59 CALM      30.43R
WOLF CREEK PAS PTSUNNY   48  43  81 S16G23    30.66R
$$

COZ009-010-012-014-032>034-037-058>063-220200-
...CENTRAL COLORADO...

CITY           SKY/WX    TMP DP  RH WIND       PRES   REMARKS
ASPEN          CLOUDY    61  53  75 SE9       30.34R
BUENA VISTA    FAIR      68  43  40 N17       30.33R
COPPER MTN     CLOUDY    54  45  71 S12       30.67F
BERTHOUD PASS  RAIN      45  32  61 S8        30.71R
COTTONWOOD PAS PTSUNNY   61  45  55 CALM      30.48R
GUNNISON       FAIR      66  51  58 SW3       30.31R
KREMMLING      CLOUDY    70  52  52 SE5       30.37R
LEADVILLE      CLOUDY    54  49  83 N10       30.48R
MONARCH PASS   FAIR      59  41  51 W8        30.74R
SALIDA         PTSUNNY   76  44  31 NE6       30.37R
SUNLIGHT       CLOUDY    54  45  71 SW6       30.58S
WILKERSON PASS CLOUDY    54  37  54 SW8G17    30.63R
$$

COZ069>075-220200-
...SAN LUIS VALLEY/SANGRE DE CRISTO MOUNTAINS...

CITY           SKY/WX    TMP DP  RH WIND       PRES   REMARKS
ALAMOSA        FAIR      76  42  29 S21G32    30.22S
DEL NORTE      FAIR      77  41  26 SE6       30.27R
LA VETA PASS   NOT AVBL
SAGUACHE         N/A    N/A N/A N/A MISG        N/A
$$

COZ035-036-038>040-220200-
...NORTHERN COLORADO FRONT RANGE...

CITY           SKY/WX    TMP DP  RH WIND       PRES   REMARKS
DENVER INTL AP PTSUNNY   73  53  49 NW12      30.17R
DMNS CITY PARK   N/A     75  52  44 NE6G13    30.18R
AURORA         TSTM      70  59  66 N13       30.20S
FRONT RANGE AP PTSUNNY   72  55  56 W15G21    30.19R
ERIE MUNI ARPT FAIR      70  57  63 N12       30.14S
BOULDER MUN AP LGT RAIN  70  55  60 NW6       30.15R
CENTENNIAL     CLOUDY    73  54  51 N12       30.20R
BROOMFIELD     LGT RAIN  68  57  68 NE7       30.19R
FORT COLLINS   CLOUDY    76  55  48 CALM      30.15R
LONGMONT       RAIN      71  57  62 NW9       30.16R
$$

COZ041-046-047-076>085-087-088-220200-
...PIKES PEAK/PALMER DIVIDE AND SOUTHERN FOOTHILLS...

CITY           SKY/WX    TMP DP  RH WIND       PRES   REMARKS
COLO. SPRINGS  PTSUNNY   79  53  40 N13       30.14R THUNDER
A. F. ACADEMY  FAIR      73  50  45 N10G20    30.16F
SCHRIEVER AFB  PTSUNNY   74  48  39 NE26G36   30.15R THUNDER
CHEYENNE MTN   FAIR      77  43  30 NW20G26   30.15S
ELLICOTT       TSTM     N/A N/A N/A N21       30.13R
FALCON         TSTM      73  51  47 E6        30.20F
FORT CARSON    FAIR      79  50  36 N16       30.10R
LIMON          PTSUNNY   79  65  62 CALM      30.04S
MONUMENT HILL  TSTM      70  41  35 E10G35    30.22F
CANON CITY     TSTM      77  55  47 SW26G36   30.06R
WALSENBURG     CLOUDY    73  59  60 NW17G24   30.10R
TRINIDAD       FAIR      89  42  19 E6        30.04S
$$

COZ042>045-048>051-090-091-220200-
...NORTHEAST COLORADO...

CITY           SKY/WX    TMP DP  RH WIND       PRES   REMARKS
GREELEY ARPT   FAIR      76  58  53 S8        30.14R
AKRON          PTSUNNY   76  55  48 NE23G35   29.99S
BURLINGTON     FAIR      93  55  27 SE7       29.94S
WRAY           NOT AVBL
YUMA           FAIR      86  59  39 E7        29.94R
STERLING       FAIR      88  54  31 NE7       29.93S
HOLYOKE        FAIR      95  54  24 E10       29.92S
FORT MORGAN    TSTM      72  55  54 W28G40    30.08R
$$

COZ086-089-092>099-220200-
...SOUTHEAST COLORADO...

CITY           SKY/WX    TMP DP  RH WIND       PRES   REMARKS
PUEBLO         FAIR      96  44  16 E9        29.95S
LA JUNTA       FAIR      96  50  20 E5        29.92S
LAMAR          FAIR      96  54  24 S8        29.86F
SPRINGFIELD      N/A     90  47  22 S14       29.96S
$$




USA.gov is the U.S. government's official web portal to all federal, state and local government web resources and services.